[[{"header":{"parameterUnit":"m.s-1","parameterCategory":1,"la1":30.2992,"la2":30.254,"lo1":-89.0895,"lo2":-89.0443,"dy":0.0025,"dx":0.0025,"nx":19,"ny":19,"refTime":"2026-04-20T09:00:00:Z","depth":0,"parameterNumber":2,"parameterNumberName":"U-component_of_WINDS"},"data":[0,0,0,-2.1144,-2.1146,-2.1208,-2.1208,-2.1303,-2.1304,0,0,0,0,0,0,0,0,0,0,0,-2.1136,-2.1137,-2.1144,-2.1146,-2.1208,-2.1208,-2.1303,-2.1304,0,0,0,0,0,0,0,0,0,0,0,-2.1135,-2.1137,-2.1138,-2.1146,-2.1208,-2.1208,-2.1303,-2.1251,0,0,0,0,0,0,0,0,0,0,-2.1188,-2.119,-2.1136,-2.1138,-2.1147,-2.1208,-2.1208,-2.1248,-2.1254,-2.1282,0,-2.131,0,-2.1309,-2.1312,-2.1312,0,0,0,-2.1139,-2.1185,-2.1192,-2.1138,-2.1147,-2.1208,-2.1178,-2.1251,-2.1258,-2.1291,-2.1311,-2.1314,-2.131,-2.1312,-2.1313,-2.1502,-2.1503,0,0,-2.1135,-2.1152,-2.1188,-2.1197,-2.1188,-2.1176,-2.118,-2.1255,-2.1279,-2.1312,-2.1316,-2.1312,-2.1313,-2.1314,-2.1501,-2.1502,0,0,0,-2.1131,-2.115,-2.1156,-2.1194,-2.1204,-2.1178,-2.1182,-2.1275,-2.1276,-2.1317,-2.1313,-2.1314,-2.1315,-2.1499,-2.1501,-2.158,0,0,0,-2.1128,-2.1147,-2.1155,-2.1166,-2.1203,-2.124,-2.1202,-2.1271,-2.1279,-2.1313,-2.1314,-2.1316,-2.1498,-2.15,-2.1575,-2.1615,0,0,0,-2.1129,-2.1147,-2.116,-2.1167,-2.1194,-2.1239,-2.1243,-2.1272,-2.1277,-2.1312,-2.1317,-2.1497,-2.15,-2.157,-2.1607,-2.1671,0,0,0,-2.1134,-2.1228,-2.1161,-2.1264,-2.1193,-2.1286,-2.1242,-2.131,-2.135,-2.1314,-2.1498,-2.1501,-2.1569,-2.1603,-2.1666,-2.173,-2.1757,0,0,-2.1262,-2.1244,-2.1303,-2.1245,-2.1354,-2.1275,-2.1396,-2.1416,-2.1403,-2.147,-2.1474,-2.1576,-2.1607,-2.167,-2.19,-2.1922,0,0,0,-2.1349,-2.1393,-2.1418,-2.1456,-2.1474,-2.1493,-2.1492,-2.15,-2.1555,-2.1441,-2.1615,-2.1632,-2.1669,-2.1698,-2.1717,-2.1748,-2.1515,-2.1514,-2.1514,-2.1557,-2.1536,-2.1633,-2.1619,-2.1657,-2.1656,-2.1685,-2.1695,-2.1662,-2.1703,-2.1724,-2.1866,-2.1901,-2.1915,-2.1948,-2.1753,-2.1753,-2.1754,-2.1754,-2.1745,-2.1804,-2.1757,-2.1835,-2.1812,-2.1877,-2.1879,-2.1853,-2.1911,-2.1848,-2.1879,-2.1815,-2.1939,-2.1967,-2.176,-2.1759,-2.1758,-2.1757,-2.1757,-2.1881,-2.1906,-2.1912,-2.1966,-2.201,-2.1991,-2.205,-2.2025,-2.2003,-2.2034,-2.2054,-2.2053,-2.2051,-2.2045,-2.2045,-2.2046,-2.2046,-2.2046,-2.2047,-2.2021,-2.2026,-2.2077,-2.2103,-2.2125,-2.2151,-2.2149,-2.217,-2.2187,-2.2166,-2.2166,-2.2131,-2.1954,-2.1912,-2.2054,-2.2053,-2.2052,-2.2051,-2.2051,-2.2225,-2.2174,-2.2255,-2.2276,-2.2305,-2.2351,-2.2318,-2.2363,-2.2376,-2.2406,-2.2363,-2.2236,-2.2216,-2.2201,-2.2166,-2.2366,-2.2365,-2.2366,-2.2366,-2.2342,-2.2328,-2.2405,-2.2442,-2.2475,-2.2453,-2.2546,-2.2545,-2.2537,-2.2544,-2.2511,-2.2461,-2.2447,-2.2436,-2.2416,-2.2383,-2.2633,-2.2634,-2.2634,-2.2467,-2.2456,-2.2539,-2.253,-2.255,-2.2568,-2.2654,-2.2699,-2.2678,-2.2644,-2.255,-2.2538,-2.2458,-2.2433,-2.2401,-2.237,-2.231,0,0]},{"header":{"parameterUnit":"m.s-1","parameterCategory":1,"la1":30.2992,"la2":30.254,"lo1":-89.0895,"lo2":-89.0443,"dy":0.0025,"dx":0.0025,"nx":19,"ny":19,"refTime":"2026-04-20T09:00:00:Z","depth":0,"parameterNumber":3,"parameterNumberName":"V-component_of_WINDS"},"data":[0,0,0,1.5378,1.5376,1.529,1.529,1.5185,1.5184,0,0,0,0,0,0,0,0,0,0,0,1.5408,1.5408,1.5378,1.5376,1.529,1.529,1.5185,1.5184,0,0,0,0,0,0,0,0,0,0,0,1.5409,1.5408,1.5408,1.5375,1.529,1.5289,1.5185,1.5248,0,0,0,0,0,0,0,0,0,0,1.533,1.5364,1.5408,1.5408,1.5375,1.529,1.5289,1.5251,1.5244,1.5227,0,1.5216,0,1.5199,1.5178,1.5178,0,0,0,1.5371,1.537,1.5342,1.5407,1.5374,1.529,1.5327,1.5247,1.5239,1.5218,1.5214,1.521,1.5197,1.5177,1.5177,1.5104,1.5104,0,0,1.5376,1.5395,1.5348,1.5338,1.5354,1.533,1.5325,1.5242,1.5238,1.5214,1.5207,1.5195,1.5177,1.5176,1.5104,1.5104,0,0,0,1.5393,1.5399,1.5373,1.5342,1.5327,1.5328,1.5321,1.5241,1.5232,1.5206,1.5194,1.5176,1.5175,1.5104,1.5104,1.5118,0,0,0,1.5395,1.5408,1.5375,1.5386,1.5328,1.5283,1.5323,1.5237,1.5227,1.5195,1.5176,1.5174,1.5104,1.5104,1.5118,1.5121,0,0,0,1.5412,1.541,1.54,1.5387,1.5352,1.5284,1.5269,1.5235,1.522,1.5177,1.5174,1.5104,1.5104,1.5118,1.512,1.5108,0,0,0,1.5435,1.5412,1.5401,1.537,1.5353,1.5295,1.527,1.5225,1.519,1.5176,1.5104,1.5104,1.5118,1.512,1.5108,1.51,1.5099,0,0,1.5416,1.541,1.5391,1.5379,1.5329,1.5307,1.5258,1.5206,1.5182,1.5131,1.5129,1.5118,1.512,1.5108,1.5088,1.5088,0,0,0,1.5392,1.5378,1.5361,1.533,1.5293,1.526,1.5215,1.5196,1.5152,1.5161,1.511,1.511,1.5102,1.5097,1.5097,1.5088,1.5103,1.5103,1.5103,1.5391,1.5366,1.5333,1.5298,1.5269,1.5224,1.5197,1.5164,1.5144,1.5133,1.5117,1.5109,1.5104,1.5103,1.5095,1.5112,1.5112,1.5112,1.5112,1.5361,1.5338,1.5317,1.5277,1.525,1.5215,1.5171,1.5159,1.5122,1.5118,1.5109,1.5106,1.5104,1.5095,1.5112,1.5112,1.5112,1.5112,1.5112,1.5357,1.5341,1.5322,1.5277,1.5246,1.5211,1.5177,1.5153,1.513,1.5122,1.5103,1.5102,1.5098,1.5115,1.5115,1.5115,1.5115,1.5115,1.5115,1.5359,1.5337,1.5313,1.5274,1.5253,1.5222,1.5179,1.5157,1.5126,1.5111,1.511,1.5092,1.5109,1.5114,1.5114,1.5114,1.5115,1.5115,1.5115,1.5335,1.5338,1.5301,1.528,1.5234,1.5205,1.5177,1.5134,1.5112,1.5096,1.5081,1.5098,1.5089,1.5089,1.5092,1.5087,1.5087,1.5087,1.5087,1.5331,1.5326,1.5284,1.5252,1.5219,1.5191,1.5149,1.5117,1.5083,1.5068,1.5066,1.5069,1.507,1.506,1.506,1.5063,1.5051,1.5051,1.5051,1.5314,1.5306,1.5275,1.5245,1.5208,1.5176,1.5137,1.51,1.5062,1.5049,1.5056,1.5057,1.5062,1.5065,1.5048,1.505,1.5054,0,0]}]]